Regional Weather Roundup
Issued by NWS Little Rock, AR

Home | Current Version | Previous Version | Graphics & Text | Print | Product List | Glossary On
Versions: 1 2 3 4 5 6 7 8 9 10 11 12 13 14 15 16 17 18 19 20 21 22 23 24 25 26 27 28 29 30 31 32 33 34 35 36 37 38 39 40 41 42 43 44 45 46 47 48 49
000
ASUS44 KLZK 020505
RWRLZK

WEATHER ROUNDUP FOR ARKANSAS
NATIONAL WEATHER SERVICE LITTLE ROCK AR
1200 AM CDT TUE JUN 02 2015

NOTE: "FAIR" INDICATES FEW OR NO CLOUDS BELOW 12,000 FEET WITH NO
SIGNIFICANT WEATHER AND/OR OBSTRUCTIONS TO VISIBILITY.

ARZ001-003-010-029-020600-
NORTHWEST ARKANSAS

CITY           SKY/WX    TMP DP  RH WIND       PRES   REMARKS
FAYETTEVILLE   CLEAR     63  61  93 CALM      30.09S
FORT SMITH     CLEAR     68  61  78 NE3       30.05S
HARRISON       CLOUDY    62  59  90 E6        30.12S
BENTONVILLE    CLEAR    N/A N/A N/A E5        30.09F
ROGERS         CLEAR     61  57  87 E7        30.10F
SILOAM SPGS    CLEAR     63  55  77 CALM      30.09F
HIGHFILL       CLEAR     63  59  87 NE3       30.08F
$$

ARZ004-005-016-020600-
NORTH CENTRAL ARKANSAS

CITY           SKY/WX    TMP DP  RH WIND       PRES   REMARKS
BATESVILLE     PTCLDY    63  59  88 NE5       30.11S
FLIPPIN        PTCLDY    63  57  82 CALM      30.10S
MTN HOME       CLOUDY    61  58  90 NE6       30.12S
$$

ARZ040-041-020600-
WEST CENTRAL ARKANSAS

CITY           SKY/WX    TMP DP  RH WIND       PRES   REMARKS
MENA           MOCLDY    68  66  94 CALM      30.08F
MOUNT IDA      MOCLDY    67  64  90 CALM      30.06S
$$

ARZ009-017-025-026-028-020600-
NORTHEAST ARKANSAS

CITY           SKY/WX    TMP DP  RH WIND       PRES   REMARKS
CORNING          N/A     63  59  88 NE9       30.11F
JONESBORO      MOCLDY    60  59  96 NE5       30.10S
NEWPORT        CLOUDY    63  62  96 NE8       30.11F
WALNUT RIDGE   CLEAR     63  57  82 N6        30.11F
BLYTHEVILLE    CLOUDY    63  63 100 N8        30.10S
$$

ARZ022-023-033-042-044-020600-
CENTRAL ARKANSAS

CITY           SKY/WX    TMP DP  RH WIND       PRES   REMARKS
LITTLE ROCK    PTCLDY    68  62  81 E3        30.09R
N LITTLE ROCK  PTCLDY    66  63  92 E5        30.09R
JACKSONVILLE   PTCLDY    65  63  92 N5        30.09R
SEARCY         CLOUDY    65  62  90 N3        30.11S
HOT SPRINGS    CLOUDY    68  63  84 E6        30.08S
RUSSELLVILLE   CLOUDY    68  62  81 VRB5      30.08S
CLINTON        CLOUDY    66  64  94 CALM      30.11F
$$

ARZ036-020600-
EAST ARKANSAS

CITY           SKY/WX    TMP DP  RH WIND       PRES   REMARKS
WEST MEMPHIS   CLEAR     63  62  97 N5        30.08S
$$

ARZ050-053-066-070-073-020600-
SOUTHWEST ARKANSAS

CITY           SKY/WX    TMP DP  RH WIND       PRES   REMARKS
ARKADELPHIA    MOCLDY    69  69 100 CALM      30.08R
CAMDEN         CLEAR     63  59  88 CALM      30.07R
TEXARKANA      MOCLDY    66  65  96 SE3       30.06S
EL DORADO      LGT RAIN  65  63  93 CALM      30.07S
DE QUEEN       MOCLDY    68  66  93 CALM      30.04F
$$

ARZ056-057-069-020600-
SOUTHEAST ARKANSAS

CITY           SKY/WX    TMP DP  RH WIND       PRES   REMARKS
PINE BLUFF     CLEAR     66  63  90 E3        30.08S
STUTTGART      MOCLDY    66  61  82 MISG      30.08F
MONTICELLO     CLEAR     66  64  93 CALM      30.07S

$$




USA.gov is the U.S. government's official web portal to all federal, state and local government web resources and services.